Погода в Дубровке

Россия / Брянская область     53°23′07″N   34°18′00″E
темп.,
°C
ветер,
м/с
пор.,
м/с
влажн.,
%
обл.,
%
осадки,
мм/ч
давл.,
гПа
погр.,
м
14 апреля, ср
ср1400:00+10ююв118252 0.0 101916
03:00+9ююв279121 0.0 1018166
06:00+8ю259861 0.0 1019128
09:00+12ю357869 0.0 1019544
12:00+15ю3461100 0.1 10181295
15:00+16ю2454100 0.3 10171394
18:00+15юв2562100 0.3 1016398
21:00+11св1177100 0.3 101610
15 апреля, чт
чт1500:00+10св2386100 0.3 101556
03:00+9всв2489100 0.3 101467
06:00+8в2878100 0.0 1014153
09:00+13в31061100 0.0 1013819
12:00+17вюв464584 0.0 10121899
15:00+16вюв5852100 0.9 10121633
18:00+11с129299 2.5 101388
21:00+9всв249229 3.4 101476
16 апреля, пт
пт1600:00+9в2688100 0.0 1013119
03:00+9в2490100 0.0 1014110
06:00+7всв239399 0.0 101563
09:00+11всв3882100 0.1 1015413
12:00+11в3780100 0.4 1016777
15:00+12всв467596 1.4 1017940
18:00+11в3780100 2.4 1017279
21:00+8в228869 2.6 101836
17 апреля, сб
сб1700:00+7всв229286 0.0 101920
03:00+8св2393100 0.0 101964
06:00+8св499778 0.1 1020347
09:00+9всв4988100 0.3 1021600
12:00+10св4986100 0.1 1021744
15:00+14св5107259 0.1 10201307
18:00+13всв61270100 0.4 10201145
21:00+11всв5147424 0.4 1021794
18 апреля, вс
вс1800:00+9всв5137810 0.0 1022682
03:00+6св4127773 0.0 1023464
06:00+6св4107493 0.0 1024428
09:00+8всв496833 0.0 1024607
12:00+12всв475956 0.0 10241033
15:00+12в5764100 0.1 10251204
18:00+10в4865100 0.0 10261081
21:00+8всв127770 0.0 102743